New Bedford, MA

9:12 AM EST on February 07, 2016 (GMT -0500)
New Bedford Regional

Weather History for KEWB - July, 2013

Change the Weather History Date:

Thursday, July 25, 2013

  Actual Average Record
Temperature  
Mean Temperature 66 °F -  
Max Temperature 71 °F 80 °F 95 °F (1987)
Min Temperature 62 °F 66 °F 48 °F (2002)
Cooling Degree Days 2    
Growing Degree Days 16 (Base 50)    
Moisture  
Dew Point 58 °F    
Average Humidity 80    
Maximum Humidity 90    
Minimum Humidity 61    
Precipitation  
Precipitation 0.04 in - - ()
Sea Level Pressure  
Sea Level Pressure 30.01 in    
Wind  
Wind Speed 10 mph (NNE)    
Max Wind Speed 17 mph    
Max Gust Speed 25 mph    
Visibility 10 miles    
Events Rain    
Averages and records for this station are not official NWS values.
T = Trace of Precipitation, MM = Missing Value Source: NWS Daily Summary

Daily Weather History Graph

Daily Weather History Graph

Search for Another Location

Airport or City:

Trip Planner

Search our weather history database for the weather conditions in past years. The results will help you decide how hot, cold, wet, or windy it might be!

Date:

Astronomy

Jul. 25, 2013 Rise Set
Actual Time 5:31 AM EDT 8:08 PM EDT
Civil Twilight 4:59 AM EDT 8:40 PM EDT
Nautical Twilight 4:19 AM EDT 9:20 PM EDT
Astronomical Twilight 3:33 AM EDT 10:05 PM EDT
Moon 9:43 PM EDT (7/25) 9:01 AM EDT (7/25)
Length of Visible Light 15h 41m
Length of Day
14h 37m
Waning Gibbous, 88% of the Moon is Illuminated
Jul 25
Waning Gibbous
Jul 29
Last Quarter
Aug 6
New
Aug 14
First Quarter
Aug 20
Full

Hourly Weather History & Observations

Time (EDT) Temp. Dew Point Humidity Pressure Visibility Wind Dir Wind Speed Gust Speed Precip Events Conditions
12:53 AM 71.1 °F 57.0 °F 61% 29.91 in 10.0 mi North 10.4 mph 20.7 mph N/A   Mostly Cloudy
1:53 AM 69.1 °F 55.9 °F 63% 29.92 in 10.0 mi NNE 9.2 mph 18.4 mph N/A   Overcast
2:53 AM 66.9 °F 55.9 °F 68% 29.92 in 10.0 mi NNE 9.2 mph 18.4 mph N/A   Mostly Cloudy
3:53 AM 66.0 °F 55.0 °F 68% 29.95 in 10.0 mi NNE 11.5 mph 19.6 mph N/A   Overcast
4:53 AM 64.0 °F 54.0 °F 70% 29.95 in 10.0 mi NNE 9.2 mph 21.9 mph N/A   Mostly Cloudy
5:53 AM 64.0 °F 54.0 °F 70% 29.98 in 10.0 mi NNE 11.5 mph 20.7 mph N/A   Overcast
6:53 AM 64.0 °F 55.0 °F 73% 29.99 in 10.0 mi NNE 8.1 mph 17.3 mph N/A   Mostly Cloudy
7:53 AM 64.0 °F 55.9 °F 75% 30.01 in 10.0 mi NNE 9.2 mph 19.6 mph N/A   Overcast
8:19 AM 64.4 °F 57.2 °F 77% 30.01 in 10.0 mi NNE 11.5 mph 21.9 mph 0.00 in Rain Light Rain
8:53 AM 64.9 °F 57.0 °F 75% 30.01 in 10.0 mi NNE 11.5 mph 18.4 mph 0.00 in   Overcast
9:53 AM 66.0 °F 57.0 °F 73% 30.02 in 10.0 mi NE 17.3 mph 25.3 mph N/A   Overcast
10:53 AM 66.0 °F 57.0 °F 73% 30.04 in 10.0 mi NNE 12.7 mph 20.7 mph N/A   Overcast
11:53 AM 64.9 °F 57.0 °F 75% 30.04 in 10.0 mi NE 12.7 mph 23.0 mph N/A   Overcast
12:53 PM 64.9 °F 57.0 °F 75% 30.04 in 10.0 mi NE 12.7 mph 20.7 mph N/A   Overcast
1:50 PM 62.6 °F 59.0 °F 88% 30.05 in 7.0 mi NNE 9.2 mph - 0.02 in Rain Light Rain
1:53 PM 63.0 °F 59.0 °F 87% 30.05 in 7.0 mi NNE 8.1 mph - 0.03 in Rain Light Rain
2:53 PM 63.0 °F 60.1 °F 90% 30.04 in 10.0 mi NNE 6.9 mph 17.3 mph 0.00 in Rain Light Rain
3:53 PM 63.0 °F 60.1 °F 90% 30.04 in 10.0 mi NNE 8.1 mph 17.3 mph 0.00 in Rain Light Rain
4:53 PM 63.0 °F 59.0 °F 87% 30.04 in 10.0 mi NNE 10.4 mph - 0.00 in Rain Light Rain
5:53 PM 62.1 °F 59.0 °F 90% 30.04 in 10.0 mi NNE 13.8 mph 20.7 mph 0.00 in Rain Light Rain
6:53 PM 62.1 °F 59.0 °F 90% 30.05 in 10.0 mi NNE 8.1 mph - 0.01 in Rain Light Rain
7:53 PM 62.1 °F 59.0 °F 90% 30.04 in 10.0 mi NNE 9.2 mph - 0.00 in   Overcast
8:53 PM 62.1 °F 59.0 °F 90% 30.04 in 10.0 mi North 8.1 mph - 0.00 in Rain Light Rain
9:11 PM 62.6 °F 59.0 °F 88% 30.03 in 10.0 mi NNE 9.2 mph - 0.00 in Rain Light Rain
9:53 PM 62.1 °F 59.0 °F 90% 30.03 in 10.0 mi North 6.9 mph 17.3 mph 0.00 in   Mostly Cloudy
10:53 PM 63.0 °F 59.0 °F 87% 30.02 in 10.0 mi NNE 9.2 mph - N/A   Overcast
11:01 PM 62.6 °F 59.0 °F 88% 30.02 in 10.0 mi NNE 9.2 mph 16.1 mph N/A   Overcast
11:53 PM 64.0 °F 59.0 °F 84% 30.01 in 10.0 mi NNE 10.4 mph - 0.00 in Rain Light Rain